Date String (YYYY-MM-DD hh:mm:ss) UTC,Instrument flags,Ambient pressure (hPa),Sample flow (lpm),Bypass flow (lpm),Sample temperature (°C),Ambient temperature (°C),ASC tube jacket temperature (°C),LED temperature (°C),Box temperature (°C),Sample RH (%),Span deviation,Mass concentration (μg/m³),Mass concentration (μg/m³),Mass concentration (μg/m³)
DateTimeUTC,F1_M11,P_M11,Q1_M11,Q2_M11,T1_M11,T2_M11,T3_M11,T4_M11,T5_M11,U1_M11,ZSPAN_M11,X0_M11,X2_M11,X1_M11
2023-05-24 16:00:00,,0831.1,5.00,0.00,29.9,28.3,00.0,38.2,31.5,30.6,0002.9,0034.22,0020.84,0019.55
2023-05-24 16:01:00,,0831.1,5.01,0.00,29.9,28.3,00.0,38.2,31.5,30.5,0002.9,0033.87,0020.83,0019.56
2023-05-24 16:02:00,,0831.1,5.01,0.00,29.9,28.3,00.0,38.2,31.5,30.1,0002.9,0033.74,0020.82,0019.57
2023-05-24 16:03:00,,0831.2,5.01,0.00,29.9,28.4,00.0,38.2,31.5,29.9,0003.0,0033.90,0020.79,0019.57
2023-05-24 16:04:00,,0831.1,4.99,0.00,29.9,28.4,00.0,38.2,31.5,30.1,0003.0,0034.27,0020.81,0019.59
2023-05-24 16:05:00,,0831.1,4.99,0.00,29.9,28.4,00.0,38.2,31.6,29.7,0002.9,0033.37,0020.81,0019.65
2023-05-24 16:06:00,,0831.1,4.99,0.00,30.0,28.4,00.0,38.3,31.6,29.3,0002.9,0033.28,0020.83,0019.70
2023-05-24 16:07:00,,0831.1,5.01,0.00,30.0,28.5,00.0,38.3,31.6,29.2,0003.0,0033.27,0020.86,0019.76
2023-05-24 16:08:00,,0831.1,5.01,0.00,30.0,28.5,00.0,38.3,31.6,29.5,0003.0,0033.42,0020.85,0019.77
2023-05-24 16:09:00,,0831.1,5.00,0.00,30.0,28.5,00.0,38.3,31.6,29.3,0003.0,0033.34,0020.87,0019.79
2023-05-24 16:10:00,,0831.1,5.00,0.00,30.0,28.5,00.0,38.3,31.6,28.6,0003.2,0033.00,0020.90,0019.88
2023-05-24 16:11:00,,0831.1,5.00,0.00,30.0,28.5,00.0,38.3,31.7,28.2,0003.2,0032.65,0020.90,0019.93
2023-05-24 16:12:00,,0831.1,4.99,0.00,30.0,28.4,00.0,38.3,31.7,28.3,0003.3,0032.16,0020.94,0019.93
2023-05-24 16:13:00,,0831.0,4.99,0.00,30.0,27.1,00.0,38.2,31.5,28.5,0003.3,0031.77,0020.98,0019.97
2023-05-24 16:14:00,,0831.0,5.00,0.00,30.0,25.7,00.0,38.1,31.3,28.3,0003.2,0031.90,0021.04,0020.01
2023-05-24 16:15:00,,0831.0,5.01,0.00,29.9,25.5,00.0,38.1,31.2,28.5,0003.3,0032.28,0021.11,0020.06
2023-05-24 16:16:00,,0831.0,5.02,0.00,29.8,25.7,00.0,38.1,31.1,28.3,0003.3,0032.44,0021.14,0020.12
2023-05-24 16:17:00,,0831.0,4.99,0.00,29.7,26.1,00.0,38.1,31.1,27.2,0003.3,0032.48,0021.26,0020.20
2023-05-24 16:18:00,,0831.0,4.99,0.00,29.7,26.4,00.0,38.1,31.1,28.4,0003.3,0032.12,0021.32,0020.23
2023-05-24 16:19:00,,0831.0,5.00,0.00,29.6,26.7,00.0,38.1,31.1,29.0,0003.3,0032.07,0021.37,0020.27
2023-05-24 16:20:00,,0831.1,5.01,0.00,29.6,27.0,00.0,38.0,31.2,29.0,0003.3,0031.90,0021.43,0020.32
2023-05-24 16:21:00,,0831.1,5.01,0.00,29.6,27.3,00.0,38.0,31.2,29.1,0003.3,0031.62,0021.49,0020.35
2023-05-24 16:22:00,,0831.0,4.99,0.00,29.6,27.5,00.0,38.0,31.2,29.1,0003.4,0031.84,0021.53,0020.38
2023-05-24 16:23:00,,0831.0,4.99,0.00,29.6,27.6,00.0,38.0,31.2,28.9,0003.4,0032.02,0021.56,0020.42
2023-05-24 16:24:00,,0831.0,5.00,0.00,29.6,27.7,00.0,38.0,31.2,28.6,0003.4,0033.26,0021.62,0020.48
2023-05-24 16:25:00,,0831.1,5.01,0.00,29.7,27.8,00.0,38.0,31.3,28.2,0003.4,0034.07,0021.60,0020.50
2023-05-24 16:26:00,,0831.1,5.00,0.00,29.7,27.9,00.0,38.0,31.3,28.4,0003.4,0033.34,0021.62,0020.53
2023-05-24 16:27:00,,0831.1,5.00,0.00,29.7,28.0,00.0,38.0,31.3,28.1,0003.4,0033.44,0021.67,0020.57
2023-05-24 16:28:00,,0831.1,5.00,0.00,29.7,28.1,00.0,38.0,31.3,28.2,0003.4,0033.40,0021.69,0020.58
2023-05-24 16:29:00,,0831.1,5.00,0.00,29.7,28.1,00.0,38.0,31.3,28.6,0003.5,0033.79,0021.65,0020.58
2023-05-24 16:30:00,,0831.0,5.00,0.00,29.7,28.2,00.0,38.0,31.4,28.7,0003.5,0034.40,0021.67,0020.58
2023-05-24 16:31:00,,0831.0,4.99,0.00,29.7,28.2,00.0,38.0,31.4,28.7,0003.5,0034.53,0021.71,0020.59
2023-05-24 16:32:00,,0831.1,4.99,0.00,29.8,28.3,00.0,38.1,31.4,28.7,0003.4,0034.90,0021.70,0020.60
2023-05-24 16:33:00,,0831.1,5.00,0.00,29.8,28.4,00.0,38.1,31.4,28.9,0003.3,0034.83,0021.71,0020.61
2023-05-24 16:34:00,,0831.0,5.02,0.00,29.8,28.4,00.0,38.1,31.5,28.7,0003.4,0035.06,0021.73,0020.65
2023-05-24 16:35:00,,0831.1,5.01,0.00,29.8,28.4,00.0,38.1,31.5,28.0,0003.3,0034.47,0021.66,0020.64
2023-05-24 16:36:00,,0831.1,5.00,0.00,29.9,28.5,00.0,38.1,31.5,28.1,0003.5,0033.40,0021.68,0020.65
2023-05-24 16:37:00,,0831.2,4.99,0.00,29.9,28.3,00.0,38.1,31.5,27.3,0003.5,0033.55,0021.71,0020.66
2023-05-24 16:38:00,,0831.1,5.00,0.00,29.9,27.0,00.0,38.1,31.4,27.2,0003.6,0033.80,0021.73,0020.69
2023-05-24 16:39:00,,0831.0,5.00,0.00,29.8,25.6,00.0,38.0,31.1,27.8,0003.5,0033.78,0021.74,0020.72
2023-05-24 16:40:00,,0831.0,5.01,0.00,29.7,25.3,00.0,37.9,31.0,28.0,0003.5,0033.72,0021.77,0020.73
2023-05-24 16:41:00,,0831.0,5.01,0.00,29.6,25.5,00.0,37.9,30.9,27.4,0003.6,0032.85,0021.78,0020.77
2023-05-24 16:42:00,,0831.1,5.00,0.00,29.5,25.9,00.0,37.9,30.9,27.6,0003.6,0032.85,0021.82,0020.81
2023-05-24 16:43:00,,0831.0,5.00,0.00,29.5,26.2,00.0,37.9,30.9,27.7,0003.7,0032.86,0021.84,0020.85
2023-05-24 16:44:00,,0831.1,5.00,0.00,29.5,26.6,00.0,37.9,31.0,27.6,0003.8,0032.84,0021.93,0020.90
2023-05-24 16:45:00,,0831.0,5.00,0.00,29.5,26.9,00.0,37.9,31.0,27.5,0003.7,0032.70,0021.94,0020.89
2023-05-24 16:46:00,,0831.0,5.01,0.00,29.5,27.1,00.0,37.9,31.1,26.8,0003.8,0032.49,0021.97,0020.89
2023-05-24 16:47:00,,0831.1,5.00,0.00,29.5,27.3,00.0,37.9,31.1,27.5,0003.7,0032.10,0021.98,0020.89
2023-05-24 16:48:00,,0831.1,5.00,0.00,29.5,27.5,00.0,37.9,31.1,27.9,0003.7,0032.06,0021.97,0020.88
2023-05-24 16:49:00,,0831.2,5.00,0.00,29.5,27.7,00.0,37.9,31.1,28.0,0003.8,0031.76,0021.94,0020.85
2023-05-24 16:50:00,,0831.1,5.00,0.00,29.5,27.8,00.0,37.9,31.2,27.3,0003.8,0031.59,0021.90,0020.82
2023-05-24 16:51:00,,0831.2,5.01,0.00,29.5,27.9,00.0,37.9,31.2,27.8,0003.8,0031.44,0021.84,0020.78
2023-05-24 16:52:00,,0831.1,5.00,0.00,29.6,28.0,00.0,37.9,31.2,27.8,0003.8,0031.78,0021.83,0020.79
2023-05-24 16:53:00,,0831.2,4.99,0.00,29.6,28.1,00.0,37.9,31.3,27.9,0003.7,0032.35,0021.90,0020.84
2023-05-24 16:54:00,,0831.1,5.00,0.00,29.6,28.1,00.0,37.9,31.3,28.3,0003.6,0032.55,0021.93,0020.83
2023-05-24 16:55:00,,0831.1,5.00,0.00,29.6,28.2,00.0,37.9,31.3,28.5,0003.6,0032.59,0021.89,0020.78
2023-05-24 16:56:00,,0831.2,4.99,0.00,29.7,28.2,00.0,37.9,31.3,28.3,0003.7,0032.59,0021.93,0020.82
2023-05-24 16:57:00,,0831.1,4.99,0.00,29.7,28.3,00.0,37.9,31.4,28.4,0003.5,0032.52,0021.95,0020.86
2023-05-24 16:58:00,,0831.2,5.00,0.00,29.7,28.4,00.0,38.0,31.4,28.4,0003.4,0032.53,0021.93,0020.86
2023-05-24 16:59:00,,0831.2,5.00,0.00,29.7,28.4,00.0,38.0,31.4,28.7,0003.4,0033.33,0021.93,0020.86
